User: anonymous   Login
Location: Caltech
(34.1382°N, 118.1253°W)
Time: 12:57:38
(UTC-07:00)
Language:

SL-08 R/B - Orbit

View from above orbital plane
View from above orbital plane
View from above satellite
View from above satellite

Ground track
Ground track

The orbit data is extracted from the following two-line orbital elements,

1 27561U 02054C   16152.46631961  .00000085  00000-0  29961-4 0  9997
2 27561  98.2050 285.6987 0044946 276.3211  83.2868 14.55532754716753
Epoch (UTC): 31 May 2016 11:11:30
Eccentricity: 0.0044946
inclination: 98.2050°
perigee height: 676 km
apogee height: 739 km
right ascension of ascending node: 285.6987°
argument of perigee: 276.3211°
revolutions per day: 14.55532754
mean anomaly at epoch: 83.2868°
orbit number at epoch: 71675

The dashed part of the orbit path shows where the satellite is in the earth's shadow,  

DLR